[[[{"header":{"parameterUnit":"kt","parameterCategory":2,"dx":1,"dy":1,"la1":30.253999710083008,"la2":30.299108505249023,"lo1":-89.0895004272461,"lo2":-89.04439544677734,"nx":28,"ny":28,"refTime":"2022-09-20T21:00:00:Z","depth":0,"parameterNumber":1,"parameterNumberName":"U-component_of_WINDS"},"data":[3.5274,3.5358,3.5341,3.5429,3.5428,3.5485,3.55,3.5517,3.5527,3.5593,3.5628,3.5619,3.562,3.5658,3.5695,3.5689,3.5706,3.575,3.5736,3.5557,3.5531,3.5506,3.5484,3.5754,3.5754,3.5923,3.5925,3.5926,3.5147,3.5147,3.5189,3.5217,3.5252,3.52,3.5217,3.525,3.5303,3.5314,3.5347,3.5404,3.5447,3.5432,3.547,3.5509,3.5486,3.5521,3.5516,3.5517,3.5326,3.5303,3.5539,3.5539,3.5539,3.5539,3.5539,3.5539,3.4912,3.4963,3.4968,3.5013,3.5022,3.5041,3.5086,3.5072,3.5112,3.5148,3.5119,3.5177,3.5185,3.522,3.5227,3.5272,3.523,3.5262,3.5269,3.5278,3.529,3.5048,3.5278,3.5277,3.5276,3.5276,3.5275,0,3.4733,3.4714,3.4751,3.4784,3.4815,3.4838,3.4856,3.4884,3.4836,3.4871,3.492,3.4945,3.4994,3.5038,3.5068,3.5068,3.5014,3.5007,3.5029,3.5043,3.5054,3.5049,3.4737,3.5,3.4998,3.4996,3.4995,3.4994,3.4493,3.4554,3.455,3.4579,3.4583,3.4631,3.4655,3.4608,3.4636,3.465,3.4698,3.4741,3.4772,3.4854,3.4835,3.4872,3.4846,3.4948,3.485,3.4863,3.4846,3.4842,3.4848,3.4968,3.4971,3.4974,3.4976,0,3.4359,3.4327,3.4416,3.4404,3.4403,3.4471,3.4461,3.451,3.449,3.4554,3.4567,3.4535,3.4583,3.4548,3.4595,3.4575,3.4686,3.4661,3.4684,3.4676,3.4764,3.4756,3.5056,3.5093,3.4813,3.4816,3.4818,0,3.414,3.4223,3.4169,3.4223,3.4313,3.4262,3.4353,3.4344,3.4348,3.4398,3.4332,3.438,3.4326,3.437,3.434,3.4425,3.4434,3.4423,3.4414,3.4428,3.4429,3.444,3.4427,3.4391,3.4389,3.4388,3.4387,0,3.3933,3.4001,3.4087,3.4097,3.4092,3.4134,3.4134,3.4137,3.4161,3.4186,3.42,3.4234,3.4252,3.4279,3.424,3.4175,3.4342,3.4245,3.4331,3.4332,3.4368,3.4366,3.4643,3.4385,3.4385,3.4384,3.4384,0,3.375,3.3776,3.3906,3.39,3.3919,3.3976,3.4004,3.4045,3.4053,3.4037,3.4056,3.4006,3.4077,3.3983,3.4079,3.4005,3.4027,3.4023,3.4028,3.4031,3.3926,3.4086,3.4353,3.4379,3.4036,3.4033,3.4031,0,3.3522,3.3644,3.3599,3.3724,3.3774,3.3695,3.3757,3.3766,3.3749,3.379,3.3772,3.3819,3.3741,3.375,3.3803,3.3786,3.3882,3.3772,3.3831,3.3834,3.3831,3.4077,3.4125,3.4299,3.3993,3.3997,3.4,0,3.334,3.3331,3.3357,3.3365,3.3366,3.3408,3.348,3.3514,3.3544,3.356,3.3619,3.3684,3.3627,3.3643,3.3605,3.3662,3.3815,3.3594,3.3593,3.3635,3.3971,3.4016,3.4046,3.3778,3.3782,3.3786,3.397,0,3.3071,3.3126,3.3193,3.3213,3.3239,3.3314,3.3273,3.3306,3.3266,3.3246,3.3332,3.3328,3.3363,3.3386,3.3348,3.3489,3.3459,3.3398,3.3302,3.3464,3.3524,3.3548,3.3217,3.3214,3.3211,3.3209,0,0,3.286,3.2938,3.2884,3.2951,3.2969,3.2884,3.2968,3.2976,3.2994,3.3009,3.2956,3.3046,3.3045,3.3153,3.3201,3.3215,3.3236,3.318,3.3387,3.3408,3.3426,3.3491,3.3517,3.3204,3.3203,3.3202,3.3202,0,3.2752,3.2751,3.2835,3.2841,3.2847,3.2821,3.2841,3.2832,3.2822,3.2905,3.2832,3.2879,3.2952,3.296,3.2974,3.3167,3.3109,3.3181,3.3298,3.3363,3.3387,3.3407,3.3476,3.3501,3.3195,3.3196,3.3196,0,3.2564,3.2557,3.2592,3.2629,3.2632,3.2686,3.2575,3.2636,3.2676,3.2577,3.266,3.2653,3.266,3.2767,3.2813,3.2766,3.2996,3.2916,3.2931,3.2935,3.2995,3.3023,3.3049,3.2716,3.2714,3.2713,0,0,3.2476,3.2527,3.2502,3.2602,3.261,3.2571,3.2595,3.2557,3.2565,3.2568,3.2556,3.2566,3.2608,3.2636,3.2673,3.2797,3.2794,3.2858,3.2881,3.29,3.2914,3.2979,3.3007,3.2707,3.2707,3.2707,0,0,3.2434,3.2409,3.2367,3.2478,3.2488,3.247,3.2533,3.2481,3.2509,3.2496,3.2435,3.2434,3.2534,3.2529,3.2458,3.2638,3.2544,3.256,3.2638,3.2666,3.2688,3.2687,3.2343,0,0,0,0,0,3.23,3.2412,3.2374,3.2386,3.2431,3.2491,3.2496,3.2448,3.2382,3.2434,3.2415,3.2351,3.2478,3.2414,3.2427,3.2506,3.2634,3.2647,3.2659,3.2788,3.2818,3.2843,0,0,0,0,0,0,3.2304,3.2319,3.2371,3.2359,3.2368,3.2486,3.2365,3.2355,3.2376,3.2362,3.2357,3.2351,3.2311,3.2403,3.2416,3.2492,3.2338,3.2639,3.265,3.266,3.2798,3.2823,3.2843,0,0,0,0,0,3.2308,3.232,3.2405,3.2356,3.2365,3.2327,3.236,3.2351,3.2366,3.2337,3.2329,3.2327,3.2315,3.2322,3.2411,3.2488,3.2329,3.2334,3.2646,3.2655,3.2663,3.281,0,0,0,0,0,0,3.231,3.2312,3.2405,3.2406,3.231,3.232,3.2319,3.2348,3.2338,3.2332,3.2304,3.2293,3.2318,3.2323,3.2329,3.2489,3.2322,3.2327,3.233,3.2653,3.266,3.2666,0,0,0,0,0,0,3.2305,3.2313,3.2406,3.235,3.2344,3.2313,3.2313,3.2381,3.2339,3.2305,3.2296,3.2299,3.2309,3.2325,3.2329,3.2438,3.2316,3.2321,3.2324,3.2326,3.2659,3.2664,0,0,0,0,0,0,3.2307,3.2314,3.2349,3.2345,3.2339,3.2344,3.2372,3.2421,3.2291,3.2307,3.2278,3.2272,3.2313,3.2316,3.233,3.2437,3.2438,3.2316,3.2319,3.2322,3.2323,0,0,0,0,0,0,0,3.2309,3.2274,3.2401,3.234,3.2335,3.2413,3.2414,3.2414,3.229,3.2285,3.2279,3.2275,3.2289,3.2294,3.2299,3.2436,0,0,3.2316,3.2318,0,0,0,0,0,0,0,0,3.227,3.2273,3.2401,3.2401,3.2401,3.2414,3.2414,3.2414,3.2289,3.2285,3.228,3.2277,3.229,3.2294,3.2299,0,0,0,0,0,0,0,0,0,0,0,0,0,0,0,3.2401,3.2401,0,3.2414,3.2414,3.2414,3.2288,3.2285,3.2281,3.2278,3.2291,3.2295,3.2298,0,0,0,0,0,0,0,0,0,0,0,0,0,0,0,0,0,0,0,0,0,0,0,0,0,0,0,0,0,0,0,0,0,0,0,0,0,0,0,0,0,0,0,0,0,0,0,0,0,0,0,0,0,0,0,0,0,0,0,0,0,0,0,0,0,0,0,0,0]}],[{"header":{"parameterUnit":"kt","parameterCategory":2,"dx":1,"dy":1,"la1":30.253999710083008,"la2":30.299108505249023,"lo1":-89.0895004272461,"lo2":-89.04439544677734,"nx":28,"ny":28,"refTime":"2022-09-20T21:00:00:Z","depth":0,"parameterNumber":2,"parameterNumberName":"V-component_of_WINDS"},"data":[-1.4887,-1.4948,-1.5012,-1.5111,-1.5185,-1.5264,-1.5313,-1.5382,-1.5454,-1.5556,-1.5627,-1.5697,-1.5795,-1.5895,-1.5975,-1.6005,-1.6034,-1.6009,-1.6049,-1.6101,-1.6112,-1.6123,-1.6112,-1.6015,-1.6015,-1.5986,-1.5985,-1.5985,-1.4922,-1.4995,-1.5066,-1.5178,-1.524,-1.5302,-1.5396,-1.5444,-1.5512,-1.5601,-1.5674,-1.5769,-1.5853,-1.5961,-1.6052,-1.6083,-1.6118,-1.6103,-1.6102,-1.6116,-1.6174,-1.6163,-1.6074,-1.6074,-1.6074,-1.6074,-1.6074,-1.6074,-1.5001,-1.5035,-1.514,-1.5218,-1.5291,-1.5366,-1.5409,-1.5496,-1.5566,-1.5668,-1.5731,-1.5811,-1.5912,-1.6054,-1.6117,-1.6182,-1.6209,-1.6214,-1.6215,-1.6214,-1.6205,-1.6238,-1.62,-1.6201,-1.6201,-1.6202,-1.6202,0,-1.5079,-1.513,-1.5202,-1.5293,-1.5354,-1.543,-1.5512,-1.5541,-1.5671,-1.5724,-1.5806,-1.5864,-1.5979,-1.6063,-1.6163,-1.6229,-1.6299,-1.6313,-1.6317,-1.6287,-1.6248,-1.6269,-1.6361,-1.6314,-1.6315,-1.6316,-1.6316,-1.6317,-1.5164,-1.5195,-1.5336,-1.5378,-1.5438,-1.5504,-1.5557,-1.567,-1.5721,-1.5838,-1.5862,-1.5949,-1.6023,-1.6144,-1.6245,-1.6331,-1.6365,-1.634,-1.6379,-1.6349,-1.6366,-1.6362,-1.6367,-1.633,-1.6328,-1.6327,-1.6326,0,-1.5205,-1.531,-1.5379,-1.5516,-1.5551,-1.5578,-1.5696,-1.5734,-1.5814,-1.5878,-1.59,-1.6025,-1.6103,-1.6209,-1.632,-1.6373,-1.6421,-1.6453,-1.6387,-1.6399,-1.6387,-1.6387,-1.6331,-1.633,-1.6433,-1.6432,-1.6431,0,-1.5318,-1.5355,-1.5509,-1.5544,-1.5589,-1.5702,-1.5744,-1.5817,-1.5906,-1.5957,-1.6054,-1.61,-1.6229,-1.6291,-1.6369,-1.6427,-1.6448,-1.6492,-1.6512,-1.6483,-1.6477,-1.6511,-1.6515,-1.6556,-1.6556,-1.6556,-1.6557,0,-1.5372,-1.5498,-1.5555,-1.5601,-1.575,-1.5774,-1.5837,-1.5938,-1.5988,-1.6071,-1.6105,-1.6193,-1.624,-1.6307,-1.6406,-1.6428,-1.648,-1.6531,-1.6525,-1.6522,-1.653,-1.6528,-1.6453,-1.6557,-1.6557,-1.6557,-1.6557,0,-1.548,-1.556,-1.5627,-1.5754,-1.5783,-1.582,-1.5914,-1.5971,-1.607,-1.6122,-1.6188,-1.6264,-1.6324,-1.6367,-1.645,-1.6451,-1.6493,-1.6541,-1.6542,-1.6553,-1.6598,-1.6542,-1.646,-1.6456,-1.6565,-1.6565,-1.6565,0,-1.5513,-1.5608,-1.5706,-1.5767,-1.5825,-1.5931,-1.5975,-1.6059,-1.6132,-1.6193,-1.6274,-1.6342,-1.6396,-1.6432,-1.646,-1.6546,-1.6545,-1.6549,-1.6636,-1.6638,-1.6606,-1.6533,-1.6493,-1.6466,-1.6567,-1.6567,-1.6567,0,-1.5552,-1.5732,-1.5736,-1.5793,-1.5923,-1.5972,-1.6022,-1.6115,-1.615,-1.6234,-1.6279,-1.6377,-1.6423,-1.6481,-1.6552,-1.6575,-1.6549,-1.6621,-1.6625,-1.6604,-1.6577,-1.654,-1.6535,-1.6592,-1.6592,-1.6592,-1.6569,0,-1.5691,-1.5752,-1.5767,-1.5887,-1.5942,-1.5986,-1.6098,-1.6141,-1.6205,-1.6281,-1.6349,-1.6445,-1.6539,-1.6561,-1.6623,-1.6642,-1.6655,-1.6702,-1.6751,-1.6702,-1.6697,-1.6695,-1.6749,-1.6752,-1.6753,-1.6755,0,0,-1.5697,-1.5786,-1.5891,-1.5944,-1.5996,-1.6105,-1.6142,-1.6206,-1.6331,-1.6365,-1.6394,-1.6545,-1.6622,-1.6693,-1.6686,-1.6723,-1.6737,-1.675,-1.6724,-1.672,-1.6717,-1.671,-1.6706,-1.6758,-1.6759,-1.6759,-1.676,0,-1.5771,-1.5847,-1.5882,-1.5953,-1.6062,-1.614,-1.6148,-1.6275,-1.6325,-1.6392,-1.648,-1.6535,-1.6651,-1.6722,-1.6772,-1.6744,-1.6807,-1.6764,-1.6712,-1.6738,-1.6732,-1.6727,-1.6718,-1.6713,-1.6764,-1.6764,-1.6764,0,-1.5829,-1.5923,-1.5951,-1.6076,-1.6148,-1.6205,-1.6285,-1.6341,-1.6385,-1.65,-1.6564,-1.6633,-1.6736,-1.6787,-1.6815,-1.6841,-1.6865,-1.6877,-1.6869,-1.6874,-1.6905,-1.6897,-1.689,-1.698,-1.6981,-1.6981,0,0,-1.5877,-1.5935,-1.607,-1.61,-1.6139,-1.6256,-1.6298,-1.6366,-1.6456,-1.6491,-1.658,-1.6665,-1.6735,-1.6778,-1.6849,-1.689,-1.692,-1.6899,-1.6889,-1.688,-1.688,-1.6908,-1.6901,-1.6982,-1.6982,-1.6982,0,0,-1.5901,-1.6059,-1.6107,-1.6156,-1.6239,-1.6374,-1.6388,-1.6451,-1.6526,-1.6533,-1.665,-1.6678,-1.6728,-1.6792,-1.6794,-1.6868,-1.6915,-1.6917,-1.6825,-1.6814,-1.6804,-1.6787,-1.6888,0,0,0,0,0,-1.6034,-1.604,-1.6082,-1.6107,-1.6264,-1.635,-1.6372,-1.6468,-1.65,-1.6509,-1.6594,-1.6658,-1.6817,-1.6822,-1.6845,-1.6841,-1.6996,-1.6994,-1.6991,-1.6884,-1.687,-1.6859,0,0,0,0,0,0,-1.6044,-1.6074,-1.6082,-1.6215,-1.6252,-1.6351,-1.6426,-1.6452,-1.6501,-1.6512,-1.664,-1.6662,-1.6746,-1.6817,-1.6836,-1.683,-1.6882,-1.6995,-1.6993,-1.6991,-1.6879,-1.6868,-1.6859,0,0,0,0,0,-1.6053,-1.6078,-1.6304,-1.6216,-1.6247,-1.6378,-1.6426,-1.6449,-1.6488,-1.6619,-1.6644,-1.6557,-1.6743,-1.6766,-1.6829,-1.6819,-1.6869,-1.6876,-1.6994,-1.6992,-1.6991,-1.6874,0,0,0,0,0,0,-1.606,-1.6099,-1.6313,-1.6326,-1.6221,-1.6374,-1.6402,-1.6446,-1.6594,-1.6618,-1.6542,-1.6549,-1.6742,-1.676,-1.6777,-1.681,-1.6859,-1.6866,-1.687,-1.6993,-1.6991,-1.699,0,0,0,0,0,0,-1.6087,-1.611,-1.632,-1.632,-1.6335,-1.637,-1.6395,-1.6461,-1.6594,-1.6509,-1.652,-1.6543,-1.6716,-1.6755,-1.6769,-1.6869,-1.6851,-1.6858,-1.6862,-1.6865,-1.6992,-1.699,0,0,0,0,0,0,-1.6098,-1.6118,-1.6318,-1.6328,-1.6341,-1.6497,-1.6431,-1.6587,-1.6595,-1.6501,-1.6598,-1.66,-1.6709,-1.6725,-1.6763,-1.6856,-1.6866,-1.6851,-1.6856,-1.6859,-1.6861,0,0,0,0,0,0,0,-1.6108,-1.5953,-1.6234,-1.6335,-1.6346,-1.6449,-1.6452,-1.6456,-1.6595,-1.6596,-1.6598,-1.6599,-1.6813,-1.682,-1.6828,-1.6846,0,0,-1.685,-1.6854,0,0,0,0,0,0,0,0,-1.5947,-1.5952,-1.6235,-1.6237,-1.624,-1.6449,-1.6452,-1.6455,-1.6595,-1.6596,-1.6598,-1.6599,-1.6815,-1.6821,-1.6827,0,0,0,0,0,0,0,0,0,0,0,0,0,0,0,-1.6235,-1.6237,0,-1.645,-1.6452,-1.6454,-1.6595,-1.6596,-1.6597,-1.6598,-1.6817,-1.6822,-1.6826,0,0,0,0,0,0,0,0,0,0,0,0,0,0,0,0,0,0,0,0,0,0,0,0,0,0,0,0,0,0,0,0,0,0,0,0,0,0,0,0,0,0,0,0,0,0,0,0,0,0,0,0,0,0,0,0,0,0,0,0,0,0,0,0,0,0,0,0,0]}]]]